Home > Weather > Alice Springs > Past weeks

Flag for Australia Weather for the Past 2 Weeks in Alice Springs, Northern Territory, Australia

Now
93 °F

Passing clouds.


Feels Like: 89 °F
Forecast: 65 / 102 °F
Wind: 6 mph from Northeast

Location: Alice Springs Aerodrome

Current Time: Feb 12, 2016 at 11:39:01 AM

Latest Report: Feb 12, 2016 at 10:30 AM


Visibility: N/A

Pressure: 29.98 "Hg (28.10 "Hg at 581m altitude)

Humidity: 16%

Dew point: 41 °F

Location of Alice SpringsLocation

Historic Weather in Alice Springs — Graph

°F

Alice Springs Temperature Yesterday

Maximum temperature yesterday: 100 °F (at 2:30 PM)
Minimum temperature yesterday: 66 °F (at 5:00 AM)
Average temperature yesterday: 85 °F

High & Low Weather Summary for the Past Weeks

 TemperatureHumidityPressure
High100 °F (Jan 31, 3:30 PM)78% (Feb 3, 1:30 AM)30.04 "Hg (Feb 3, 1:30 AM)
Low59 °F (Feb 5, 5:30 AM)6% (Feb 10, 12:30 PM)29.59 "Hg (Feb 1, 5:00 PM)
Average83 °F34%29.87 "Hg
* Reported Jan 28 10:30 AM — Feb 12 10:30 AM, Alice Springs, Weather by CustomWeather, © 2016

Note: Actual official high and low records may vary slightly from our data, if they occured in-between our weather recording intervals... More about our weather records

Advertising

Alice Springs Weather History for the Previous 24 Hours

 ConditionsComfort  
Time TempWeatherWind HumidityBarometerVisibility
10:30 AM
Fri, Feb 12
93 °FPassing clouds.6 mph16%29.98 "HgN/A
10:00 AM93 °FSunny.3 mph16%29.98 "Hg10 mi
9:30 AM91 °FSunny.3 mph18%29.98 "Hg10 mi
8:30 AM84 °FSunny.3 mph23%29.98 "Hg10 mi
6:30 AM68 °FSunny.7 mph40%29.95 "Hg10 mi
6:00 AM68 °FSunny.5 mph40%29.95 "Hg10 mi
5:30 AM68 °FClear.7 mph43%29.92 "HgN/A
5:00 AM70 °FClear.6 mph35%29.92 "HgN/A
4:30 AM72 °FClear.3 mph33%29.92 "HgN/A
3:30 AM73 °FClear.3 mph38%29.89 "HgN/A
3:00 AM75 °FClear.1 mph34%29.89 "HgN/A
2:30 AM77 °FClear.6 mph34%29.89 "HgN/A
2:00 AM79 °FClear.7 mph28%29.89 "HgN/A
1:30 AM79 °FClear.8 mph28%29.92 "HgN/A
1:00 AM79 °FClear.8 mph28%29.92 "HgN/A
12:30 AM81 °FClear.6 mph24%29.92 "HgN/A
12:00 AM79 °FClear.6 mph28%29.92 "HgN/A
11:30 PM
Thu, Feb 11
79 °FClear.5 mph28%29.95 "HgN/A
11:00 PM82 °FPassing clouds.5 mph28%29.92 "HgN/A
10:30 PM84 °FPassing clouds.6 mph22%29.92 "HgN/A
10:00 PM84 °FClear.6 mph22%29.92 "HgN/A
9:30 PM84 °FPassing clouds.6 mph29%29.92 "HgN/A
9:00 PM86 °FClear.7 mph20%29.92 "HgN/A
8:30 PM88 °FPassing clouds.8 mph18%29.89 "HgN/A
8:00 PM91 °FPassing clouds.8 mph16%29.89 "HgN/A
7:30 PM93 °FPassing clouds.9 mph14%29.89 "HgN/A
7:00 PM95 °FClear.13 mph12%29.86 "HgN/A
6:30 PM97 °FSunny.15 mph12%29.86 "HgN/A
6:00 PM97 °FSunny.15 mph12%29.86 "HgN/A
5:30 PM99 °FSunny.16 mph11%29.86 "Hg10 mi
5:00 PM99 °FPassing clouds.15 mph10%29.83 "HgN/A
4:30 PM100 °FPassing clouds.15 mph7%29.83 "HgN/A
4:00 PM99 °FSunny.15 mph9%29.86 "Hg10 mi
3:30 PM99 °FSunny.13 mph10%29.86 "Hg10 mi
3:00 PM99 °FDuststorm.16 mph10%29.86 "HgN/A
2:30 PM100 °FPassing clouds.16 mph9%29.86 "HgN/A
2:00 PM99 °FSunny.18 mph10%29.86 "Hg10 mi
1:30 PM99 °FDuststorm.15 mph10%29.89 "HgN/A
1:00 PM99 °FDuststorm.12 mph12%29.89 "HgN/A
12:30 PM99 °FSunny.15 mph10%29.89 "Hg10 mi
11:30 AM97 °FSunny.14 mph11%29.92 "Hg10 mi
11:00 AM95 °FPassing clouds.10 mph10%29.95 "HgN/A
Weather by CustomWeather, © 2016

See weather overviewHow to use our weather pages